This demonstration page uses our WeatherBlox Daily Observations layout. Learn more.

Left ArrowRight Arrow

44.8408, -93.29828

Hourly Observations for August 25, 2019

Temp ( °F °C ) Dew Point ( °F °C ) Humidity (%) Winds ( mph kmh ) Pressure ( in mb ) Visibility ( mi km ) Precip ( " mm )
12:53 am 00:53 Cloudy 65 18.3 55 12.8 70 70 SSE 9 15 30.11 1020 10 16 0.00 0.00
1:53 am 01:53 Cloudy 66 18.9 54 12.2 65 65 SSE 12 19 30.10 1019 10 16 0.00 0.00
2:53 am 02:53 Mostly Cloudy 65 18.3 54 12.2 68 68 SSE 10 17 30.08 1019 10 16 0.00 0.00
3:53 am 03:53 Cloudy 65 18.3 54 12.2 68 68 SSE 12 19 30.07 1018 10 16 0.00 0.00
4:53 am 04:53 Partly Cloudy 63 17.2 54 12.2 73 73 SSE 14 22 30.06 1018 10 16 0.00 0.00
5:53 am 05:53 Mostly Cloudy 62 16.7 53 11.7 73 73 SSE 10 17 30.05 1018 10 16 0.00 0.00
6:53 am 06:53 Mostly Cloudy 62 16.7 52 11.1 70 70 SSE 10 17 30.05 1018 10 16 0.00 0.00
7:53 am 07:53 Mostly Cloudy 63 17.2 53 11.7 70 70 SSE 12 19 30.05 1018 10 16 0.00 0.00
8:53 am 08:53 Mostly Cloudy 64 17.8 54 12.2 70 70 SE 12 19 30.04 1017 10 16 0.00 0.00
9:53 am 09:53 Partly Cloudy 66 18.9 55 12.8 68 68 SE 15 24 30.04 1017 10 16 0.00 0.00
10:53 am 10:53 Mostly Cloudy 69 20.6 55 12.8 61 61 SE 16 26 30.02 1017 10 16 0.00 0.00
11:53 am 11:53 Mostly Cloudy 72 22.2 56 13.3 57 57 SSE 16 26 30.01 1016 10 16 0.00 0.00
12:53 pm 12:53 Mostly Cloudy 73 22.8 55 12.8 53 53 SSE 14 22 29.99 1016 10 16 0.00 0.00
1:53 pm 13:53 Mostly Cloudy 75 23.9 56 13.3 52 52 SSE 16 26 29.98 1015 10 16 0.00 0.00
2:53 pm 14:53 Mostly Cloudy 74 23.3 55 12.8 52 52 SE 13 20 29.97 1015 10 16 0.00 0.00
3:53 pm 15:53 Cloudy 73 22.8 56 13.3 55 55 SE 13 20 29.95 1014 10 16 0.00 0.00
4:53 pm 16:53 Cloudy with Rain 68 20 59 15 73 73 SE 8 13 29.94 1014 6 10 0.01 0.25
5:53 pm 17:53 Cloudy 68 20 60 15.6 76 76 ESE 13 20 29.92 1013 10 16 0.00 0.00
6:53 pm 18:53 Cloudy 68 20 60 15.6 76 76 SE 9 15 29.91 1013 10 16 0.00 0.00
7:53 pm 19:53 Cloudy with Light Rain 68 20 58 14.4 70 70 SE 15 24 29.90 1013 10 16 0.00 0.00
8:53 pm 20:53 Cloudy 68 20 58 14.4 70 70 SSE 12 19 29.91 1013 10 16 0.00 0.00
9:53 pm 21:53 Cloudy 67 19.4 58 14.4 73 73 SE 13 20 29.90 1013 10 16 0.00 0.00
10:53 pm 22:53 Cloudy 66 18.9 59 15 78 78 SSE 10 17 29.90 1013 10 16 0.00 0.00
11:53 pm 23:53 Cloudy 66 18.9 59 15 78 78 SSE 8 13 29.90 1013 10 16 0.00 0.00

Powered by AerisWeather